Regional Weather Roundup
Issued by NWS

Home | Current Version | Previous Version | Text Only | Print | Product List | Glossary Off
Versions: 1 2 3 4 5 6 7 8 9 10 11 12 13 14 15 16 17 18 19 20 21 22 23 24 25 26 27 28 29 30 31 32 33 34 35 36 37 38 39 40 41 42 43 44 45 46 47 48 49 50

000
ASUS43 KIND 031909
RWRIN

WEATHER ROUNDUP FOR INDIANA
NATIONAL WEATHER SERVICE INDIANAPOLIS IN
200 PM EST TUE MAR 03 2015

NOTE: "FAIR" INDICATES FEW OR NO CLOUDS BELOW 12,000 FEET WITH NO
SIGNIFICANT WEATHER AND/OR OBSTRUCTIONS TO VISIBILITY.

* - STATION DOES NOT REPORT WEATHER SUCH AS PRECIPITATION OR FOG.

+ - STATION NOT QUALITY CONTROLLED BY THE NATIONAL WEATHER SERVICE.
    USE DATA WITH CAUTION...ESPECIALLY DEWPOINT AND RELATIVE
    HUMIDITY OBSERVATIONS.

INZ001>003-010>013-019-020-032000-
NORTHWEST INDIANA

CITY           SKY/WX    TMP DP  RH WIND       PRES   REMARKS
KNOX *+          N/A     32  28  86 SW21G31   29.66F WCI  20
LA PORTE +     CLOUDY    35  35 100 SW20      29.66S FOG     WCI  24
MONTICELLO +   LGT RAIN  35  34  98 SW14G20   29.70F WCI  25
RENSSELAER +   CLOUDY    36  36 100 SW20      29.68F FOG
VALPARAISO     CLOUDY    33  32  96 SW17      29.65F FOG     WCI  22

$$

LMZ046-743>745-032000-
SOUTHERN LAKE MICHIGAN

STATION/POSITION TIME  TEMP WIND        PRES
                       AIR  DIR/SP/G
                 (UTC) (F)  (DEG/KT/KT) (MB)
MICHIGAN CITY    1800   32  170/ 19/ 23   N/A

$$

INZ004-005-014>016-021>024-032000-
NORTH CENTRAL INDIANA

CITY           SKY/WX    TMP DP  RH WIND       PRES   REMARKS
ELKHART        CLOUDY    32  30  93 SW14      29.65F FOG     WCI  22
GOSHEN         CLOUDY    33  30  88 S18       29.65F FOG     WCI  22
SOUTH BEND     CLOUDY    34  31  88 SW13      29.66F FOG     WCI  25
WARSAW +       LGT RAIN  32  32 100 S9G16     29.65F WCI  24

$$

INZ006>009-017-018-025>027-032000-
NORTHEAST INDIANA

CITY           SKY/WX    TMP DP  RH WIND       PRES   REMARKS
ANGOLA *+      CLOUDY    30  28  93 S17       29.66F WCI  18
AUBURN +       MIX PCPN  32  30  93 S10G18    29.69F WCI  24
FORT WAYNE     DRZL/FOG  33  31  92 S15       29.72F VSB 1   WCI  23

$$

INZ028-029-035-036-043>045-051>053-032000-
WEST CENTRAL INDIANA

CITY           SKY/WX    TMP DP  RH WIND       PRES   REMARKS
CRAWFORDSVL +  CLOUDY    35  32  88 SW15      29.75F FOG     WCI  26
GREENCASTLE +  LGT RAIN  37  34  87 SW8       29.79R
LAFAYETTE      LGT RAIN  36  35  96 SW12      29.73F FOG
TERRE HAUTE    CLOUDY    39  37  92 SW10      29.80F FOG

$$

INZ030>032-037>040-046>048-054>057-064-065-032000-
CENTRAL INDIANA

CITY           SKY/WX    TMP DP  RH WIND       PRES   REMARKS
ANDERSON       LGT RAIN  36  36 100 S12G23    29.76
COLUMBUS       LGT RAIN  37  36  93 S7        29.80F FOG
FRANKFORT +    CLOUDY   N/A N/A N/A S21       29.74F HAZE
GREENWOOD *+   CLOUDY    36  32  87 S8        29.78F
INDIANAPOLIS   LGT RAIN  36  34  92 SW10      29.77F FOG
-EAGLE CREEK   LGT RAIN  36  35  96 SW8       29.77R FOG
KOKOMO *+      CLOUDY    36  34  93 SW20      29.72F
MT COMFORT *+  CLOUDY    34 N/A N/A S9        29.77F WCI  26
SHELBYVILLE    CLOUDY    37  34  89 S15       29.77F FOG
ZIONSVILLE +   RAIN      36  33  88 SW14G20   29.75F

$$

INZ033-034-041-042-049-050-058-059-032000-
EAST CENTRAL INDIANA

CITY           SKY/WX    TMP DP  RH WIND       PRES   REMARKS
MUNCIE         LGT RAIN  37  35  92 SW14      29.73F FOG

$$

INZ060-061-067>069-081>083-085>088-032000-
SOUTHWEST INDIANA

CITY           SKY/WX    TMP DP  RH WIND       PRES   REMARKS
EVANSVILLE     RAIN      46  44  93 SW13      29.87F VSB 1
HUNTINGBURG *+ CLOUDY    45  43  93 S15       29.86F

$$

INZ062-063-066-070>080-084-089>092-032000-
SOUTH CENTRAL AND SOUTHEAST INDIANA

CITY           SKY/WX    TMP DP  RH WIND       PRES   REMARKS
BLOOMINGTON    LGT RAIN  43  42  97 SW17      29.79F FOG
NORTH VERNON + LGT RAIN  41  41 100 S13       29.82F
SEYMOUR +      LGT RAIN  43  41  93 S15       29.81F

$$



USA.gov is the U.S. government's official web portal to all federal, state and local government web resources and services.